Flag for U.S.A. Weather past 2 weeks in Petersburg, Indiana, U.S.A.

Now
91 °F

Sunny.


Feels Like: 94 °F
Forecast: 68 / 92 °F
Wind: 7 mph from South

Location: Huntingburg Airport

Current Time: Sep 4, 2015 at 2:58:17 PM

Latest Report: Sep 4, 2015 at 2:35 PM


Visibility: 10 mi

Pressure: 30.04 "Hg

Humidity: 44%

Dew point: 66 °F

Location of PetersburgLocation

Historic Weather in Petersburg — Graph

°F

Petersburg temperature yesterday

Maximum temperature yesterday: 91 °F (at 1:55 PM)
Minimum temperature yesterday: 64 °F (at 5:55 AM)
Average temperature yesterday: 78 °F

Past Weeks' High & Low Weather Summary

 TemperatureHumidityPressure
High91 °F (Sep 2, 3:15 PM)94% (Aug 21, 2:15 AM)30.19 "Hg (Aug 21, 2:15 AM)
Low52 °F (Aug 25, 6:15 AM)39% (Aug 24, 2:35 PM)29.90 "Hg (Aug 23, 6:15 PM)
Average72 °F72%30.07 "Hg
* Reported Aug 20 1:15 PM — Sep 4 1:55 PM, Petersburg, Weather by CustomWeather, © 2015

Note: Actual official high and low records may vary slightly from our data, if they occured in-between our weather recording intervals... More about our weather records

Advertising

Petersburg weather history for previous 24 hours

 ConditionsComfort  
Time TempWeatherWind HumidityBarometerVisibility
1:55 PM
Fri, Sep 4
91 °FBroken clouds.6 mph44%30.04 "Hg10 mi
1:35 PM90 °FBroken clouds.7 mph46%30.05 "Hg10 mi
1:15 PM90 °FScattered clouds.5 mph46%30.05 "Hg10 mi
12:55 PM90 °FPassing clouds.5 mph52%30.05 "Hg10 mi
12:35 PM90 °FBroken clouds.3 mph55%30.05 "Hg10 mi
12:15 PM90 °FPassing clouds.3 mph52%30.06 "Hg10 mi
11:55 AM88 °FSunny.3 mph55%30.06 "Hg10 mi
11:35 AM88 °FSunny.No wind59%30.06 "Hg10 mi
11:15 AM86 °FSunny.No wind62%30.05 "Hg10 mi
10:55 AM84 °FSunny.No wind66%30.05 "Hg10 mi
10:35 AM82 °FSunny.No wind70%30.05 "Hg9 mi
10:15 AM82 °FSunny.No wind70%30.05 "Hg9 mi
9:55 AM79 °FSunny.No wind74%30.05 "Hg8 mi
9:35 AM77 °FSunny.No wind79%30.05 "Hg6 mi
9:15 AM73 °FSunny.No wind89%30.05 "Hg5 mi
8:55 AM72 °FSunny.No wind88%30.05 "Hg5 mi
8:35 AM70 °FSunny.No wind88%30.04 "Hg3 mi
8:15 AM68 °FClear.No wind88%30.04 "Hg2 mi
7:55 AM66 °FPassing clouds.No wind94%30.04 "Hg1 mi
7:35 AM68 °FClear.No wind88%30.03 "Hg1 mi
7:15 AM66 °FDense fog.No wind94%30.02 "Hg1 mi
6:55 AM66 °FClear.No wind94%30.02 "Hg2 mi
6:35 AM66 °FClear.No wind94%30.01 "Hg5 mi
6:15 AM66 °FClear.No wind94%30.00 "Hg3 mi
5:55 AM66 °FClear.No wind94%30.00 "Hg2 mi
5:35 AM68 °FClear.No wind88%30.00 "Hg3 mi
5:15 AM68 °FClear.3 mph88%30.00 "Hg1 mi
4:55 AM68 °FClear.No wind88%29.99 "Hg2 mi
4:35 AM68 °FClear.No wind88%29.99 "Hg3 mi
4:15 AM68 °FClear.No wind88%29.99 "Hg3 mi
3:55 AM70 °FClear.5 mph83%29.98 "Hg3 mi
3:35 AM68 °FClear.No wind88%29.98 "Hg4 mi
3:15 AM68 °FClear.3 mph88%29.98 "Hg4 mi
2:55 AM68 °FClear.3 mph88%29.98 "Hg5 mi
2:35 AM68 °FClear.3 mph88%29.98 "Hg5 mi
2:15 AM70 °FClear.No wind88%29.98 "Hg4 mi
1:55 AM70 °FClear.No wind83%29.98 "Hg4 mi
1:35 AM70 °FClear.No wind88%29.98 "Hg7 mi
1:15 AM72 °FClear.No wind83%29.98 "Hg8 mi
12:55 AM70 °FClear.No wind88%29.98 "Hg7 mi
12:35 AM70 °FClear.3 mph88%29.98 "Hg8 mi
12:15 AM72 °FClear.No wind83%29.97 "Hg8 mi
11:35 PM
Thu, Sep 3
72 °FClear.No wind83%29.97 "Hg10 mi
11:15 PM73 °FClear.3 mph78%29.97 "Hg10 mi
10:55 PM73 °FClear.No wind78%29.97 "Hg10 mi
10:35 PM73 °FClear.No wind78%29.97 "Hg10 mi
10:15 PM73 °FClear.No wind78%29.97 "Hg10 mi
9:55 PM73 °FClear.No wind78%29.96 "Hg10 mi
9:35 PM75 °FClear.No wind78%29.96 "Hg10 mi
9:15 PM79 °FClear.No wind65%29.95 "Hg9 mi
8:55 PM79 °FSunny.No wind65%29.95 "Hg10 mi
8:35 PM81 °FSunny.No wind66%29.94 "Hg10 mi
8:15 PM82 °FSunny.No wind62%29.94 "Hg10 mi
7:55 PM84 °FSunny.3 mph58%29.94 "Hg10 mi
7:35 PM88 °FSunny.3 mph52%29.94 "Hg10 mi
7:15 PM90 °FSunny.3 mph49%29.94 "Hg10 mi
6:55 PM90 °FSunny.No wind43%29.94 "Hg10 mi
6:15 PM90 °FSunny.No wind43%29.94 "Hg10 mi
5:35 PM91 °FSunny.6 mph44%29.95 "Hg10 mi
5:15 PM91 °FPassing clouds.3 mph41%29.95 "Hg10 mi
4:55 PM91 °FPassing clouds.7 mph44%29.95 "Hg10 mi
4:35 PM91 °FSunny.5 mph44%29.96 "Hg10 mi
4:15 PM91 °FSunny.5 mph44%29.97 "Hg10 mi
3:55 PM91 °FSunny.3 mph41%29.98 "Hg10 mi
3:35 PM91 °FPassing clouds.3 mph44%29.98 "Hg10 mi
3:15 PM91 °FBroken clouds.No wind44%29.99 "Hg10 mi
2:55 PM91 °FScattered clouds.5 mph46%29.99 "Hg10 mi
2:35 PM90 °FScattered clouds.7 mph46%30.00 "Hg10 mi
2:15 PM91 °FBroken clouds.5 mph49%30.00 "Hg10 mi
Weather by CustomWeather, © 2015

See weather overviewHow to use our weather pages